Saint Bonnet de Bellac- Haute Vienne - France
Donnes mto: dimanche, 18/03/2012
Date Horaire Temp. E. Hum. E. P.atmo. Pluie Vent Direction Direction Ensoleilleme Solaire P. de rose Temp au vent Rafales
18/03/2012 00:00 6,5 C 87 % 1017,9 hPa 0,0 mm 3,6 km/h (1 Bft) SO 225 0 min 0 W/m 4,5 C 6,5 C 4,3 km/h (1 Bft)
18/03/2012 00:10 6,5 C 88 % 1018,0 hPa 0,0 mm 5,8 km/h (2 Bft) S-SO 202 0 min 0 W/m 4,7 C 5,5 C 7,2 km/h (2 Bft)
18/03/2012 00:20 6,5 C 88 % 1018,1 hPa 0,0 mm 5,4 km/h (2 Bft) O-SO 247 0 min 0 W/m 4,7 C 5,6 C 9,4 km/h (2 Bft)
18/03/2012 00:30 6,5 C 88 % 1017,8 hPa 0,0 mm 2,9 km/h (1 Bft) SO 225 0 min 0 W/m 4,7 C 6,5 C 4,0 km/h (1 Bft)
18/03/2012 00:40 6,4 C 88 % 1017,3 hPa 0,0 mm 4,0 km/h (1 Bft) S-SO 202 0 min 0 W/m 4,6 C 6,4 C 7,2 km/h (2 Bft)
18/03/2012 00:50 6,4 C 88 % 1017,3 hPa 0,0 mm 4,0 km/h (1 Bft) S-SO 202 0 min 0 W/m 4,6 C 6,4 C 7,6 km/h (2 Bft)
18/03/2012 01:00 6,4 C 89 % 1017,6 hPa 0,0 mm 4,0 km/h (1 Bft) SO 225 0 min 0 W/m 4,7 C 6,4 C 7,6 km/h (2 Bft)
18/03/2012 01:10 6,4 C 89 % 1017,7 hPa 0,1 mm 6,1 km/h (2 Bft) S-SO 202 0 min 0 W/m 4,7 C 5,3 C 7,9 km/h (2 Bft)
18/03/2012 01:20 6,4 C 89 % 1017,3 hPa 0,0 mm 5,0 km/h (1 Bft) SO 225 0 min 0 W/m 4,7 C 5,7 C 9,4 km/h (2 Bft)
18/03/2012 01:30 6,4 C 89 % 1017,1 hPa 0,0 mm 6,5 km/h (2 Bft) S-SO 202 0 min 0 W/m 4,7 C 5,2 C 11,2 km/h (2 Bft)
18/03/2012 01:40 6,3 C 89 % 1016,9 hPa 0,0 mm 4,0 km/h (1 Bft) S-SO 202 0 min 0 W/m 4,6 C 6,3 C 4,3 km/h (1 Bft)
18/03/2012 01:50 6,3 C 88 % 1016,6 hPa 0,0 mm 0,0 km/h (0 Bft) S-SO 202 0 min 0 W/m 4,5 C 6,3 C 0,0 km/h (0 Bft)
18/03/2012 02:02 6,3 C 88 % 1016,8 hPa 0,0 mm 0,0 km/h (0 Bft) SO 225 0 min 0 W/m 4,5 C 6,3 C 0,0 km/h (0 Bft)
18/03/2012 02:10 6,1 C 89 % 1016,8 hPa 0,0 mm 1,4 km/h (1 Bft) S 180 0 min 0 W/m 4,4 C 6,1 C 3,6 km/h (1 Bft)
18/03/2012 02:20 6,0 C 89 % 1016,9 hPa 0,0 mm 0,0 km/h (0 Bft) SO 225 0 min 0 W/m 4,3 C 6,0 C 0,0 km/h (0 Bft)
18/03/2012 02:30 5,9 C 89 % 1016,9 hPa 0,0 mm 3,6 km/h (1 Bft) SO 225 0 min 0 W/m 4,2 C 5,9 C 8,3 km/h (2 Bft)
18/03/2012 02:40 6,0 C 90 % 1016,9 hPa 0,0 mm 5,4 km/h (2 Bft) S-SO 202 0 min 0 W/m 4,5 C 5,1 C 12,2 km/h (2 Bft)
18/03/2012 02:50 6,1 C 90 % 1016,9 hPa 0,0 mm 2,5 km/h (1 Bft) SO 225 0 min 0 W/m 4,6 C 6,1 C 4,0 km/h (1 Bft)
18/03/2012 03:00 6,1 C 90 % 1016,6 hPa 0,0 mm 1,1 km/h (1 Bft) SO 225 0 min 0 W/m 4,6 C 6,1 C 4,0 km/h (1 Bft)
18/03/2012 03:10 6,0 C 90 % 1016,4 hPa 0,0 mm 2,9 km/h (1 Bft) S-SO 202 0 min 0 W/m 4,5 C 6,0 C 7,2 km/h (2 Bft)
18/03/2012 03:20 5,9 C 90 % 1016,6 hPa 0,0 mm 3,2 km/h (1 Bft) S-SO 202 0 min 0 W/m 4,4 C 5,9 C 4,3 km/h (1 Bft)
18/03/2012 03:30 5,9 C 90 % 1016,4 hPa 0,0 mm 4,7 km/h (1 Bft) SO 225 0 min 0 W/m 4,4 C 5,2 C 4,7 km/h (1 Bft)
18/03/2012 03:40 5,8 C 90 % 1016,4 hPa 0,0 mm 2,5 km/h (1 Bft) S-SO 202 0 min 0 W/m 4,3 C 5,8 C 7,2 km/h (2 Bft)
18/03/2012 03:50 5,8 C 90 % 1016,4 hPa 0,0 mm 4,0 km/h (1 Bft) S-SO 202 0 min 0 W/m 4,3 C 5,8 C 8,3 km/h (2 Bft)
18/03/2012 04:00 5,8 C 90 % 1016,3 hPa 0,0 mm 4,3 km/h (1 Bft) S-SO 202 0 min 0 W/m 4,3 C 5,8 C 7,9 km/h (2 Bft)
18/03/2012 04:10 5,8 C 90 % 1016,4 hPa 0,0 mm 4,0 km/h (1 Bft) S-SO 202 0 min 0 W/m 4,3 C 5,8 C 7,9 km/h (2 Bft)
18/03/2012 04:20 5,9 C 90 % 1016,4 hPa 0,0 mm 1,8 km/h (1 Bft) SO 225 0 min 0 W/m 4,4 C 5,9 C 3,6 km/h (1 Bft)
18/03/2012 04:30 5,9 C 90 % 1016,5 hPa 0,0 mm 5,4 km/h (2 Bft) S-SO 202 0 min 0 W/m 4,4 C 5,0 C 10,4 km/h (2 Bft)
18/03/2012 04:40 5,9 C 91 % 1016,4 hPa 0,0 mm 6,5 km/h (2 Bft) SO 225 0 min 0 W/m 4,5 C 4,6 C 9,0 km/h (2 Bft)
18/03/2012 04:50 6,0 C 91 % 1016,4 hPa 0,0 mm 3,2 km/h (1 Bft) S-SO 202 0 min 0 W/m 4,6 C 6,0 C 4,0 km/h (1 Bft)
18/03/2012 05:00 6,0 C 91 % 1016,5 hPa 0,0 mm 3,6 km/h (1 Bft) SO 225 0 min 0 W/m 4,6 C 6,0 C 7,9 km/h (2 Bft)
18/03/2012 05:10 6,0 C 91 % 1016,4 hPa 0,1 mm 4,3 km/h (1 Bft) SO 225 0 min 0 W/m 4,6 C 6,0 C 9,0 km/h (2 Bft)
18/03/2012 05:20 5,9 C 91 % 1016,4 hPa 0,0 mm 3,2 km/h (1 Bft) SO 225 0 min 0 W/m 4,5 C 5,9 C 6,5 km/h (2 Bft)
18/03/2012 05:30 5,9 C 91 % 1016,3 hPa 0,0 mm 5,4 km/h (2 Bft) SO 225 0 min 0 W/m 4,5 C 5,0 C 6,8 km/h (2 Bft)
18/03/2012 05:40 5,9 C 90 % 1016,3 hPa 0,0 mm 7,9 km/h (2 Bft) SO 225 0 min 0 W/m 4,4 C 4,2 C 11,2 km/h (2 Bft)
18/03/2012 05:50 5,9 C 89 % 1016,2 hPa 0,0 mm 6,1 km/h (2 Bft) SO 225 0 min 0 W/m 4,2 C 4,7 C 12,6 km/h (3 Bft)
18/03/2012 06:00 5,8 C 88 % 1016,2 hPa 0,0 mm 8,3 km/h (2 Bft) SO 225 0 min 0 W/m 4,0 C 4,0 C 8,3 km/h (2 Bft)
18/03/2012 06:10 5,6 C 88 % 1016,0 hPa 0,0 mm 7,6 km/h (2 Bft) O-SO 247 0 min 0 W/m 3,8 C 3,9 C 7,6 km/h (2 Bft)
18/03/2012 06:20 5,4 C 88 % 1016,1 hPa 0,0 mm 7,6 km/h (2 Bft) SO 225 0 min 0 W/m 3,6 C 3,7 C 11,2 km/h (2 Bft)
18/03/2012 06:30 5,3 C 88 % 1016,0 hPa 0,0 mm 8,3 km/h (2 Bft) S-SO 202 0 min 0 W/m 3,5 C 3,4 C 10,8 km/h (2 Bft)
18/03/2012 06:40 5,2 C 87 % 1015,9 hPa 0,0 mm 5,4 km/h (2 Bft) SO 225 0 min 0 W/m 3,2 C 4,2 C 11,2 km/h (2 Bft)
18/03/2012 06:50 5,1 C 88 % 1015,9 hPa 0,0 mm 7,2 km/h (2 Bft) S-SO 202 0 min 0 W/m 3,3 C 3,5 C 12,6 km/h (3 Bft)
18/03/2012 07:00 4,9 C 88 % 1016,1 hPa 0,0 mm 8,6 km/h (2 Bft) S 180 0 min 0 W/m 3,1 C 2,9 C 12,2 km/h (2 Bft)
18/03/2012 07:10 4,9 C 88 % 1016,3 hPa 0,0 mm 5,8 km/h (2 Bft) S-SO 202 0 min 0 W/m 3,1 C 3,7 C 10,8 km/h (2 Bft)
18/03/2012 07:20 4,8 C 89 % 1016,3 hPa 0,0 mm 4,3 km/h (1 Bft) SO 225 2 min 0 W/m 3,1 C 4,8 C 8,3 km/h (2 Bft)
18/03/2012 07:30 4,8 C 89 % 1016,4 hPa 0,0 mm 4,0 km/h (1 Bft) S-SO 202 2 min 0 W/m 3,1 C 4,8 C 8,3 km/h (2 Bft)
18/03/2012 07:40 4,8 C 89 % 1016,3 hPa 0,0 mm 4,3 km/h (1 Bft) SO 225 2 min 0 W/m 3,1 C 4,8 C 6,8 km/h (2 Bft)
18/03/2012 07:50 4,9 C 89 % 1016,3 hPa 0,0 mm 2,5 km/h (1 Bft) S-SO 202 2 min 0 W/m 3,2 C 4,9 C 3,6 km/h (1 Bft)
18/03/2012 08:00 5,1 C 89 % 1016,3 hPa 0,0 mm 5,8 km/h (2 Bft) S-SO 202 2 min 0 W/m 3,4 C 3,9 C 10,8 km/h (2 Bft)
18/03/2012 08:10 5,3 C 88 % 1016,4 hPa 0,0 mm 5,8 km/h (2 Bft) S-SO 202 2 min 0 W/m 3,5 C 4,1 C 6,5 km/h (2 Bft)
18/03/2012 08:20 5,4 C 89 % 1016,5 hPa 0,0 mm 4,0 km/h (1 Bft) S 180 2 min 0 W/m 3,7 C 5,4 C 9,0 km/h (2 Bft)
18/03/2012 08:30 5,6 C 88 % 1016,7 hPa 0,0 mm 7,6 km/h (2 Bft) S-SO 202 2 min 0 W/m 3,8 C 3,9 C 11,5 km/h (2 Bft)
18/03/2012 08:40 6,2 C 86 % 1016,7 hPa 0,0 mm 10,1 km/h (2 Bft) S-SO 202 2 min 0 W/m 4,0 C 4,1 C 15,5 km/h (3 Bft)
18/03/2012 08:50 6,6 C 84 % 1016,8 hPa 0,0 mm 10,4 km/h (2 Bft) S-SO 202 2 min 0 W/m 4,1 C 4,5 C 13,3 km/h (3 Bft)
18/03/2012 09:00 6,8 C 83 % 1016,8 hPa 0,0 mm 8,3 km/h (2 Bft) SO 225 2 min 0 W/m 4,1 C 5,2 C 11,5 km/h (2 Bft)
18/03/2012 09:10 6,8 C 83 % 1016,8 hPa 0,0 mm 6,1 km/h (2 Bft) S-SO 202 2 min 0 W/m 4,1 C 5,8 C 7,9 km/h (2 Bft)
18/03/2012 09:20 7,3 C 81 % 1016,9 hPa 0,0 mm 10,1 km/h (2 Bft) S-SO 202 2 min 0 W/m 4,3 C 5,4 C 16,6 km/h (3 Bft)
18/03/2012 09:30 7,8 C 82 % 1017,0 hPa 0,0 mm 10,8 km/h (2 Bft) S 180 2 min 0 W/m 4,9 C 5,9 C 10,8 km/h (2 Bft)
18/03/2012 09:40 7,8 C 80 % 1017,0 hPa 0,0 mm 14,4 km/h (3 Bft) SO 225 2 min 0 W/m 4,6 C 5,3 C 17,6 km/h (3 Bft)
18/03/2012 09:50 7,9 C 80 % 1017,2 hPa 0,0 mm 13,0 km/h (3 Bft) S-SO 202 2 min 0 W/m 4,7 C 5,6 C 19,1 km/h (3 Bft)
18/03/2012 10:00 7,8 C 81 % 1017,3 hPa 0,0 mm 14,8 km/h (3 Bft) S-SO 202 2 min 0 W/m 4,7 C 5,2 C 14,8 km/h (3 Bft)
18/03/2012 10:10 7,4 C 82 % 1017,4 hPa 0,0 mm 7,9 km/h (2 Bft) SO 225 2 min 0 W/m 4,5 C 6,0 C 7,9 km/h (2 Bft)
18/03/2012 10:20 6,9 C 85 % 1017,5 hPa 0,0 mm 5,4 km/h (2 Bft) SO 225 2 min 0 W/m 4,6 C 6,1 C 11,5 km/h (2 Bft)
18/03/2012 10:30 6,8 C 85 % 1017,5 hPa 0,0 mm 10,8 km/h (2 Bft) S-SO 202 2 min 0 W/m 4,5 C 4,7 C 15,5 km/h (3 Bft)
18/03/2012 10:40 6,6 C 86 % 1017,6 hPa 0,1 mm 9,0 km/h (2 Bft) SO 225 2 min 0 W/m 4,4 C 4,8 C 9,0 km/h (2 Bft)
18/03/2012 10:50 6,6 C 86 % 1017,5 hPa 0,0 mm 3,2 km/h (1 Bft) S-SO 202 2 min 0 W/m 4,4 C 6,6 C 3,2 km/h (1 Bft)
18/03/2012 11:00 6,8 C 86 % 1017,4 hPa 0,0 mm 6,1 km/h (2 Bft) SO 225 2 min 0 W/m 4,6 C 5,8 C 9,7 km/h (2 Bft)
18/03/2012 11:10 7,1 C 85 % 1017,5 hPa 0,0 mm 5,8 km/h (2 Bft) S-SO 202 2 min 0 W/m 4,8 C 6,2 C 10,1 km/h (2 Bft)
18/03/2012 11:20 7,1 C 83 % 1017,5 hPa 0,0 mm 8,3 km/h (2 Bft) O-SO 247 2 min 0 W/m 4,4 C 5,5 C 12,6 km/h (3 Bft)
18/03/2012 11:30 7,1 C 84 % 1017,6 hPa 0,0 mm 7,2 km/h (2 Bft) SO 225 2 min 0 W/m 4,6 C 5,8 C 10,8 km/h (2 Bft)
18/03/2012 11:40 7,2 C 85 % 1017,6 hPa 0,0 mm 11,5 km/h (2 Bft) SO 225 2 min 0 W/m 4,9 C 5,0 C 14,0 km/h (3 Bft)
18/03/2012 11:50 7,2 C 84 % 1017,6 hPa 0,0 mm 11,2 km/h (2 Bft) SO 225 2 min 0 W/m 4,7 C 5,1 C 12,6 km/h (3 Bft)
18/03/2012 12:00 7,4 C 83 % 1017,8 hPa 0,0 mm 9,4 km/h (2 Bft) SO 225 2 min 0 W/m 4,7 C 5,6 C 14,4 km/h (3 Bft)
18/03/2012 12:10 7,4 C 82 % 1017,7 hPa 0,0 mm 16,6 km/h (3 Bft) O-SO 247 2 min 0 W/m 4,5 C 4,5 C 23,8 km/h (4 Bft)
18/03/2012 12:20 7,4 C 82 % 1017,7 hPa 0,0 mm 10,1 km/h (2 Bft) SO 225 2 min 0 W/m 4,5 C 5,5 C 14,4 km/h (3 Bft)
18/03/2012 12:30 7,4 C 83 % 1017,8 hPa 0,0 mm 9,4 km/h (2 Bft) O-SO 247 2 min 0 W/m 4,7 C 5,6 C 16,2 km/h (3 Bft)
18/03/2012 12:40 7,3 C 81 % 1017,6 hPa 0,0 mm 16,2 km/h (3 Bft) SO 225 2 min 0 W/m 4,3 C 4,4 C 27,0 km/h (5 Bft)
18/03/2012 12:50 7,2 C 80 % 1017,7 hPa 0,0 mm 14,0 km/h (3 Bft) SO 225 2 min 0 W/m 4,0 C 4,6 C 19,8 km/h (3 Bft)
18/03/2012 13:00 7,4 C 81 % 1017,7 hPa 0,0 mm 11,5 km/h (2 Bft) S-SO 202 2 min 0 W/m 4,4 C 5,2 C 18,0 km/h (3 Bft)
18/03/2012 13:10 7,5 C 80 % 1017,7 hPa 0,0 mm 14,4 km/h (3 Bft) S-SO 202 2 min 0 W/m 4,3 C 4,9 C 16,6 km/h (3 Bft)
18/03/2012 13:20 8,1 C 80 % 1017,7 hPa 0,0 mm 15,5 km/h (3 Bft) S-SO 202 2 min 0 W/m 4,9 C 5,5 C 20,9 km/h (4 Bft)
18/03/2012 13:30 7,8 C 79 % 1017,7 hPa 0,0 mm 13,0 km/h (3 Bft) S-SO 202 2 min 0 W/m 4,4 C 5,5 C 15,5 km/h (3 Bft)
18/03/2012 13:40 7,8 C 80 % 1017,5 hPa 0,0 mm 10,4 km/h (2 Bft) O-SO 247 2 min 0 W/m 4,6 C 5,9 C 16,9 km/h (3 Bft)
18/03/2012 13:50 8,1 C 80 % 1017,7 hPa 0,0 mm 11,9 km/h (2 Bft) SO 225 2 min 0 W/m 4,9 C 6,0 C 15,5 km/h (3 Bft)
18/03/2012 14:00 8,5 C 76 % 1017,3 hPa 0,0 mm 10,4 km/h (2 Bft) O-SO 247 2 min 0 W/m 4,5 C 6,8 C 10,4 km/h (2 Bft)
18/03/2012 14:10 8,5 C 77 % 1017,3 hPa 0,0 mm 11,2 km/h (2 Bft) S-SO 202 2 min 0 W/m 4,7 C 6,6 C 19,8 km/h (3 Bft)
18/03/2012 14:20 8,0 C 84 % 1017,3 hPa 0,2 mm 13,7 km/h (3 Bft) SO 225 2 min 0 W/m 5,5 C 5,6 C 20,9 km/h (4 Bft)
18/03/2012 14:30 8,3 C 85 % 1017,5 hPa 0,0 mm 9,0 km/h (2 Bft) SO 225 2 min 0 W/m 5,9 C 6,8 C 12,6 km/h (3 Bft)
18/03/2012 14:40 8,2 C 82 % 1017,4 hPa 0,0 mm 5,4 km/h (2 Bft) SO 225 2 min 0 W/m 5,3 C 7,6 C 8,6 km/h (2 Bft)
18/03/2012 14:50 8,3 C 80 % 1017,3 hPa 0,0 mm 7,9 km/h (2 Bft) SO 225 2 min 0 W/m 5,1 C 7,0 C 12,6 km/h (3 Bft)
18/03/2012 15:00 8,3 C 79 % 1017,5 hPa 0,0 mm 6,1 km/h (2 Bft) O-SO 247 2 min 0 W/m 4,9 C 7,5 C 7,9 km/h (2 Bft)
18/03/2012 15:10 6,8 C 79 % 1017,9 hPa 0,5 mm 13,3 km/h (3 Bft) SO 225 2 min 0 W/m 3,4 C 4,2 C 20,9 km/h (4 Bft)
18/03/2012 15:20 5,6 C 85 % 1018,0 hPa 0,2 mm 3,2 km/h (1 Bft) O 270 2 min 0 W/m 3,3 C 5,6 C 6,8 km/h (2 Bft)
18/03/2012 15:30 5,4 C 88 % 1018,1 hPa 0,2 mm 4,7 km/h (1 Bft) SO 225 2 min 0 W/m 3,6 C 4,7 C 7,9 km/h (2 Bft)
18/03/2012 15:40 5,4 C 89 % 1018,2 hPa 0,0 mm 2,2 km/h (1 Bft) O-SO 247 2 min 0 W/m 3,7 C 5,4 C 2,2 km/h (1 Bft)
18/03/2012 15:50 5,6 C 90 % 1018,1 hPa 0,1 mm 2,2 km/h (1 Bft) S-SO 202 2 min 0 W/m 4,1 C 5,6 C 2,9 km/h (1 Bft)
18/03/2012 16:00 5,8 C 90 % 1018,1 hPa 0,1 mm 2,2 km/h (1 Bft) S-SO 202 2 min 0 W/m 4,3 C 5,8 C 7,9 km/h (2 Bft)
18/03/2012 16:10 6,0 C 89 % 1018,1 hPa 0,0 mm 2,2 km/h (1 Bft) N 360 2 min 0 W/m 4,3 C 6,0 C 2,2 km/h (1 Bft)
18/03/2012 16:20 5,9 C 88 % 1018,3 hPa 0,0 mm 4,3 km/h (1 Bft) SO 225 2 min 0 W/m 4,1 C 5,9 C 7,2 km/h (2 Bft)
18/03/2012 16:30 5,9 C 88 % 1018,2 hPa 0,0 mm 0,7 km/h (0 Bft) SO 225 2 min 0 W/m 4,1 C 5,9 C 0,7 km/h (0 Bft)
18/03/2012 16:40 5,9 C 89 % 1018,1 hPa 0,0 mm 5,4 km/h (2 Bft) S-SO 202 2 min 0 W/m 4,2 C 5,0 C 9,7 km/h (2 Bft)
18/03/2012 16:50 5,9 C 89 % 1018,0 hPa 0,0 mm 5,0 km/h (1 Bft) S 180 2 min 0 W/m 4,2 C 5,1 C 7,9 km/h (2 Bft)
18/03/2012 17:00 6,1 C 89 % 1018,1 hPa 0,0 mm 5,0 km/h (1 Bft) N 360 2 min 0 W/m 4,4 C 5,3 C 5,0 km/h (1 Bft)
18/03/2012 17:10 6,6 C 89 % 1018,2 hPa 0,0 mm 6,1 km/h (2 Bft) S-SE 157 2 min 0 W/m 4,9 C 5,5 C 6,8 km/h (2 Bft)
18/03/2012 17:20 6,8 C 88 % 1018,3 hPa 0,0 mm 2,2 km/h (1 Bft) SO 225 2 min 0 W/m 5,0 C 6,8 C 4,3 km/h (1 Bft)
18/03/2012 17:30 6,6 C 87 % 1018,4 hPa 0,0 mm 2,5 km/h (1 Bft) S-SO 202 2 min 0 W/m 4,6 C 6,6 C 3,2 km/h (1 Bft)
18/03/2012 17:40 6,4 C 87 % 1018,7 hPa 0,0 mm 2,2 km/h (1 Bft) S-SO 202 2 min 0 W/m 4,4 C 6,4 C 4,0 km/h (1 Bft)
18/03/2012 17:50 6,4 C 88 % 1018,9 hPa 0,0 mm 4,3 km/h (1 Bft) S-SO 202 2 min 0 W/m 4,6 C 6,4 C 6,1 km/h (2 Bft)
18/03/2012 18:00 6,3 C 88 % 1019,1 hPa 0,2 mm 12,6 km/h (3 Bft) S-SO 202 2 min 0 W/m 4,5 C 3,7 C 21,6 km/h (4 Bft)
18/03/2012 18:10 5,5 C 87 % 1019,2 hPa 0,5 mm 7,2 km/h (2 Bft) SO 225 2 min 0 W/m 3,5 C 3,9 C 10,8 km/h (2 Bft)
18/03/2012 18:20 5,1 C 88 % 1019,1 hPa 0,1 mm 2,9 km/h (1 Bft) S-SO 202 2 min 0 W/m 3,3 C 5,1 C 7,2 km/h (2 Bft)
18/03/2012 18:30 5,1 C 89 % 1019,3 hPa 0,0 mm 4,7 km/h (1 Bft) S 180 2 min 0 W/m 3,4 C 4,3 C 9,4 km/h (2 Bft)
18/03/2012 18:40 5,1 C 90 % 1019,4 hPa 0,0 mm 3,2 km/h (1 Bft) S-SO 202 2 min 0 W/m 3,6 C 5,1 C 4,3 km/h (1 Bft)
18/03/2012 18:50 5,2 C 90 % 1019,7 hPa 0,0 mm 4,0 km/h (1 Bft) SO 225 2 min 0 W/m 3,7 C 5,2 C 6,8 km/h (2 Bft)
18/03/2012 19:00 5,2 C 91 % 1019,7 hPa 0,1 mm 5,0 km/h (1 Bft) S-SO 202 0 min 0 W/m 3,9 C 4,3 C 7,9 km/h (2 Bft)
18/03/2012 19:10 5,2 C 90 % 1019,7 hPa 0,0 mm 6,1 km/h (2 Bft) O-SO 247 0 min 0 W/m 3,7 C 3,9 C 8,3 km/h (2 Bft)
18/03/2012 19:20 5,0 C 90 % 1019,7 hPa 0,0 mm 2,9 km/h (1 Bft) S-SO 202 0 min 0 W/m 3,5 C 5,0 C 4,3 km/h (1 Bft)
18/03/2012 19:30 4,8 C 90 % 1019,8 hPa 0,0 mm 1,1 km/h (1 Bft) S-SO 202 0 min 0 W/m 3,3 C 4,8 C 4,0 km/h (1 Bft)
18/03/2012 19:40 4,5 C 90 % 1020,0 hPa 0,0 mm 2,5 km/h (1 Bft) S-SO 202 0 min 0 W/m 3,0 C 4,5 C 4,3 km/h (1 Bft)
18/03/2012 19:50 4,3 C 91 % 1020,2 hPa 0,0 mm 0,7 km/h (0 Bft) SO 225 0 min 0 W/m 3,0 C 4,3 C 4,0 km/h (1 Bft)
18/03/2012 20:00 4,1 C 91 % 1020,3 hPa 0,0 mm 0,4 km/h (0 Bft) SO 225 0 min 0 W/m 2,8 C 4,1 C 0,4 km/h (0 Bft)
18/03/2012 20:10 4,2 C 91 % 1020,4 hPa 0,2 mm 6,1 km/h (2 Bft) SO 225 0 min 0 W/m 2,9 C 2,8 C 6,8 km/h (2 Bft)
18/03/2012 20:20 4,3 C 92 % 1020,5 hPa 0,2 mm 2,9 km/h (1 Bft) S-SO 202 0 min 0 W/m 3,1 C 4,3 C 9,7 km/h (2 Bft)
18/03/2012 20:30 4,4 C 91 % 1020,6 hPa 0,3 mm 5,0 km/h (1 Bft) S-SO 202 0 min 0 W/m 3,1 C 3,4 C 9,0 km/h (2 Bft)
18/03/2012 20:40 4,4 C 92 % 1020,5 hPa 0,1 mm 3,2 km/h (1 Bft) S-SO 202 0 min 0 W/m 3,2 C 4,4 C 6,8 km/h (2 Bft)
18/03/2012 20:50 4,5 C 91 % 1020,6 hPa 0,0 mm 4,7 km/h (1 Bft) S-SO 202 0 min 0 W/m 3,2 C 3,6 C 7,9 km/h (2 Bft)
18/03/2012 21:00 4,4 C 91 % 1020,6 hPa 0,0 mm 0,4 km/h (0 Bft) S-SO 202 0 min 0 W/m 3,1 C 4,4 C 4,0 km/h (1 Bft)
18/03/2012 21:10 4,4 C 91 % 1020,9 hPa 0,0 mm 1,1 km/h (1 Bft) N-NO 337 0 min 0 W/m 3,1 C 4,4 C 3,2 km/h (1 Bft)
18/03/2012 21:20 4,3 C 91 % 1021,3 hPa 0,1 mm 0,7 km/h (0 Bft) N-NO 337 0 min 0 W/m 3,0 C 4,3 C 3,6 km/h (1 Bft)
18/03/2012 21:30 4,4 C 91 % 1021,4 hPa 0,0 mm 0,0 km/h (0 Bft) NO 315 0 min 0 W/m 3,1 C 4,4 C 0,0 km/h (0 Bft)
18/03/2012 21:40 4,4 C 91 % 1021,4 hPa 0,0 mm 0,0 km/h (0 Bft) NO 315 0 min 0 W/m 3,1 C 4,4 C 0,0 km/h (0 Bft)
18/03/2012 21:50 4,4 C 91 % 1021,5 hPa 0,0 mm 0,0 km/h (0 Bft) NO 315 0 min 0 W/m 3,1 C 4,4 C 0,0 km/h (0 Bft)
18/03/2012 22:00 4,4 C 91 % 1021,7 hPa 0,0 mm 0,0 km/h (0 Bft) NO 315 0 min 0 W/m 3,1 C 4,4 C 0,0 km/h (0 Bft)
18/03/2012 22:10 4,5 C 92 % 1021,8 hPa 0,0 mm 0,0 km/h (0 Bft) N 360 0 min 0 W/m 3,3 C 4,5 C 0,0 km/h (0 Bft)
18/03/2012 22:20 4,5 C 92 % 1021,7 hPa 0,1 mm 0,0 km/h (0 Bft) NO 315 0 min 0 W/m 3,3 C 4,5 C 0,0 km/h (0 Bft)
18/03/2012 22:30 4,6 C 92 % 1021,7 hPa 0,0 mm 0,0 km/h (0 Bft) SO 225 0 min 0 W/m 3,4 C 4,6 C 0,0 km/h (0 Bft)
18/03/2012 22:40 4,5 C 92 % 1021,7 hPa 0,0 mm 0,0 km/h (0 Bft) SO 225 0 min 0 W/m 3,3 C 4,5 C 0,0 km/h (0 Bft)
18/03/2012 22:50 4,4 C 92 % 1021,8 hPa 0,0 mm 0,0 km/h (0 Bft) SO 225 0 min 0 W/m 3,2 C 4,4 C 0,0 km/h (0 Bft)
18/03/2012 23:00 4,3 C 92 % 1021,8 hPa 0,0 mm 0,7 km/h (0 Bft) SO 225 0 min 0 W/m 3,1 C 4,3 C 0,7 km/h (0 Bft)
18/03/2012 23:10 4,3 C 92 % 1021,9 hPa 0,0 mm 1,1 km/h (1 Bft) SO 225 0 min 0 W/m 3,1 C 4,3 C 1,1 km/h (1 Bft)
18/03/2012 23:20 4,3 C 92 % 1022,0 hPa 0,0 mm 1,1 km/h (1 Bft) S-SO 202 0 min 0 W/m 3,1 C 4,3 C 4,0 km/h (1 Bft)
18/03/2012 23:30 4,3 C 92 % 1022,1 hPa 0,0 mm 0,0 km/h (0 Bft) SO 225 0 min 0 W/m 3,1 C 4,3 C 0,0 km/h (0 Bft)
18/03/2012 23:40 4,3 C 92 % 1022,2 hPa 0,0 mm 0,0 km/h (0 Bft) SO 225 0 min 0 W/m 3,1 C 4,3 C 0,0 km/h (0 Bft)
18/03/2012 23:50 4,3 C 92 % 1022,4 hPa 0,1 mm 0,0 km/h (0 Bft) SO 225 0 min 0 W/m 3,1 C 4,3 C 0,0 km/h (0 Bft)
_ Min-Heure 20:00 14:00 06:50 - 23:50 - - - - 20:00 20:10 23:50
Minimum _ 4,1 C 76 % 1015,9 hPa - 0,0 km/h (0 Bft) - - - - 2,8 C 2,8 C 0,0 km/h (0 Bft)
_ Max-Heure 14:10 23:50 23:50 18:10 12:10 - - 18:50 23:50 14:30 14:40 12:40
Maximum _ 8,5 C 92 % 1022,4 hPa 0,5 mm 16,6 km/h
O-SO (3 Bft)
- - 2 min 0 W/m 5,9 C 7,6 C 27,0 km/h
SO (5 Bft)
Moyenne _ 6,0 C 88 % 1018,1 hPa #3,7 mm 5,5 km/h (2 Bft) SO - #2:20 h 0 W/m 4,1 C 5,2 C 8,4 km/h (2 Bft)
Saint Bonnet de Bellac- Haute Vienne - France